Hourly Data Report for February 05, 2006

TORONTO CITY
ONTARIO

43°40'00.000" N
79°24'00.000" W
112.50 m
6158355
71508
XTO

Download Data

Hourly Data (February 2006)
Hourly Data Report for February 5, 2006
TIME
LST
Temp Definition
°C
Dew Point Definition
°C
Rel Hum Definition
%
Precip. Amount Definition
mm

Wind Dir Definition
10's deg

Wind Spd Definition
km/h
Visibility Definition
km
Stn Press Definition
kPa
Hmdx Definition


Wind Chill Definition


Weather Definition


00:00 3.2 2.9 98   LegendMM LegendMM   97.23     LegendNANA
01:00 3.2 2.9 98   LegendMM LegendMM   97.25     LegendNANA
02:00 3.6 1.7 87   LegendMM LegendMM   97.20     LegendNANA
03:00 3.3 0.7 83   LegendMM LegendMM   97.12     LegendNANA
04:00 2.5 1.2 91   LegendMM LegendMM   96.96     LegendNANA
05:00 2.5 0.5 87   LegendMM LegendMM   96.79     LegendNANA
06:00 1.9 0.8 92   LegendMM LegendMM   96.75     LegendNANA
07:00 2.0 0.6 90   LegendMM LegendMM   96.84     LegendNANA
08:00 1.9 0.2 88   LegendMM LegendMM   96.92     LegendNANA
09:00 1.2 0.3 94   LegendMM LegendMM   97.02     LegendNANA
10:00 1.6 -0.4 87   LegendMM LegendMM   97.12     LegendNANA
11:00 1.4 -0.6 87   LegendMM LegendMM   97.28     LegendNANA
12:00 1.4 -2.1 77   LegendMM LegendMM   97.36     LegendNANA
13:00 1.0 -4.2 68   LegendMM LegendMM   97.41     LegendNANA
14:00 0.2 -5.2 67   LegendMM LegendMM   97.49     LegendNANA
15:00 -0.5 -6.4 64   LegendMM LegendMM   97.58     LegendNANA
16:00 -1.3 -6.0 70   LegendMM LegendMM   97.67     LegendNANA
17:00 -2.1 -7.1 69   LegendMM LegendMM   97.78     LegendNANA
18:00 -2.5 -5.9 77   LegendMM LegendMM   97.86     LegendNANA
19:00 -2.7 -5.9 79   LegendMM LegendMM   97.93     LegendNANA
20:00 -2.4 -6.5 73   LegendMM LegendMM   98.01     LegendNANA
21:00 -3.0 -4.8 87   LegendMM LegendMM   98.10     LegendNANA
22:00 -3.0 -5.2 85   LegendMM LegendMM   98.15     LegendNANA
23:00 -3.3 -5.2 87   LegendMM LegendMM   98.24     LegendNANA

Notes on Data Quality.

Legend

  • E = Estimated
  • M = Missing
  • NA = Not Available*
  • [empty] = Indicates an unobserved value
Date modified: